Time,TemperatureF,DewpointF,PressureIn,WindDirection,WindDirectionDegrees,WindSpeedMPH,WindSpeedGustMPH,Humidity,HourlyPrecipIn,Conditions,Clouds,dailyrainin,SoftwareType,DateUTC
2013-06-18 00:02:00,70.0,57.0,-100.00,SSE,158,2.0,-999.0,63,-99.99,,,-99.99,,2013-06-18 05:02:00,
2013-06-18 00:12:00,71.0,57.0,-100.00,ESE,113,0.0,-999.0,62,-99.99,,,-99.99,,2013-06-18 05:12:00,
2013-06-18 00:22:00,71.0,57.0,-100.00,ESE,113,0.0,-999.0,62,-99.99,,,-99.99,,2013-06-18 05:22:00,
2013-06-18 00:33:00,70.0,57.0,-100.00,NE,45,3.0,-999.0,64,-99.99,,,-99.99,,2013-06-18 05:33:00,
2013-06-18 00:43:00,70.0,57.0,-100.00,NE,45,3.0,-999.0,64,-99.99,,,-99.99,,2013-06-18 05:43:00,
2013-06-18 00:53:00,71.0,56.0,-100.00,NE,45,3.0,-999.0,59,-99.99,,,-99.99,,2013-06-18 05:53:00,
2013-06-18 01:02:00,72.0,56.0,-100.00,North,0,2.0,-999.0,57,-99.99,,,-99.99,,2013-06-18 06:02:00,
2013-06-18 01:11:00,72.0,56.0,-100.00,North,0,2.0,-999.0,57,-99.99,,,-99.99,,2013-06-18 06:11:00,
2013-06-18 01:23:00,69.0,57.0,-100.00,North,0,3.0,-999.0,65,-99.99,,,-99.99,,2013-06-18 06:23:00,
2013-06-18 01:32:00,69.0,57.0,-100.00,WSW,248,4.0,-999.0,64,-99.99,,,-99.99,,2013-06-18 06:32:00,
2013-06-18 01:43:00,69.0,57.0,-100.00,WSW,248,4.0,-999.0,64,-99.99,,,-99.99,,2013-06-18 06:43:00,
2013-06-18 01:53:00,69.0,57.0,-100.00,NNE,23,6.0,-999.0,65,-99.99,,,-99.99,,2013-06-18 06:53:00,
2013-06-18 02:02:00,68.0,58.0,-100.00,NNE,23,6.0,-999.0,70,-99.99,,,-99.99,,2013-06-18 07:02:00,
2013-06-18 02:12:00,68.0,58.0,-100.00,NNE,23,6.0,-999.0,70,-99.99,,,-99.99,,2013-06-18 07:12:00,
2013-06-18 02:22:00,68.0,58.0,-100.00,NNE,23,6.0,-999.0,70,-99.99,,,-99.99,,2013-06-18 07:22:00,
2013-06-18 02:33:00,66.0,58.0,-100.00,NNE,23,6.0,-999.0,75,-99.99,,,-99.99,,2013-06-18 07:33:00,
2013-06-18 02:43:00,66.0,58.0,-100.00,NNE,23,6.0,-999.0,75,-99.99,,,-99.99,,2013-06-18 07:43:00,
2013-06-18 02:53:00,67.0,59.0,-100.00,NNE,23,7.0,-999.0,76,-99.99,,,-99.99,,2013-06-18 07:53:00,
2013-06-18 03:01:00,65.0,59.0,-100.00,NNE,23,7.0,-999.0,80,-99.99,,,-99.99,,2013-06-18 08:01:00,
2013-06-18 03:11:00,65.0,59.0,-100.00,NNE,23,7.0,-999.0,80,-99.99,,,-99.99,,2013-06-18 08:11:00,
2013-06-18 03:23:00,66.0,59.0,-100.00,NE,45,6.0,-999.0,79,-99.99,,,-99.99,,2013-06-18 08:23:00,
2013-06-18 03:32:00,65.0,59.0,-100.00,NNE,23,5.0,-999.0,79,-99.99,,,-99.99,,2013-06-18 08:32:00,
2013-06-18 03:43:00,65.0,59.0,-100.00,NNE,23,5.0,-999.0,79,-99.99,,,-99.99,,2013-06-18 08:43:00,
2013-06-18 03:52:00,65.0,59.0,-100.00,NE,45,4.0,-999.0,82,-99.99,,,-99.99,,2013-06-18 08:52:00,
2013-06-18 04:01:00,65.0,59.0,-100.00,NE,45,6.0,-999.0,81,-99.99,,,-99.99,,2013-06-18 09:01:00,
2013-06-18 04:12:00,64.0,58.0,-100.00,NE,45,6.0,-999.0,81,-99.99,,,-99.99,,2013-06-18 09:12:00,
2013-06-18 04:22:00,64.0,58.0,-100.00,NE,45,6.0,-999.0,81,-99.99,,,-99.99,,2013-06-18 09:22:00,
2013-06-18 04:34:00,64.0,59.0,-100.00,NE,45,4.0,-999.0,82,-99.99,,,-99.99,,2013-06-18 09:34:00,
2013-06-18 04:43:00,64.0,59.0,-100.00,NE,45,4.0,-999.0,82,-99.99,,,-99.99,,2013-06-18 09:43:00,
2013-06-18 04:53:00,64.0,58.0,-100.00,NNE,23,7.0,-999.0,81,-99.99,,,-99.99,,2013-06-18 09:53:00,
2013-06-18 05:02:00,65.0,57.0,-100.00,ENE,68,7.0,-999.0,77,-99.99,,,-99.99,,2013-06-18 10:02:00,
2013-06-18 05:11:00,67.0,57.0,-100.00,NNE,23,5.0,-999.0,69,-99.99,,,-99.99,,2013-06-18 10:11:00,
2013-06-18 05:22:00,67.0,57.0,-100.00,NNE,23,5.0,-999.0,69,-99.99,,,-99.99,,2013-06-18 10:22:00,
2013-06-18 05:33:00,65.0,57.0,-100.00,ENE,68,5.0,-999.0,75,-99.99,,,-99.99,,2013-06-18 10:33:00,
2013-06-18 05:43:00,65.0,57.0,-100.00,ENE,68,5.0,-999.0,75,-99.99,,,-99.99,,2013-06-18 10:43:00,
2013-06-18 05:53:00,64.0,56.0,-100.00,East,90,4.0,-999.0,75,-99.99,,,-99.99,,2013-06-18 10:53:00,
2013-06-18 06:02:00,64.0,56.0,-100.00,East,90,5.0,-999.0,75,-99.99,,,-99.99,,2013-06-18 11:02:00,
2013-06-18 06:11:00,63.0,56.0,-100.00,NE,45,6.0,-999.0,79,-99.99,,,-99.99,,2013-06-18 11:11:00,
2013-06-18 06:22:00,63.0,56.0,-100.00,NE,45,6.0,-999.0,79,-99.99,,,-99.99,,2013-06-18 11:22:00,
2013-06-18 06:32:00,62.0,57.0,-100.00,NE,45,5.0,-999.0,82,-99.99,,,-99.99,,2013-06-18 11:32:00,
2013-06-18 06:43:00,62.0,57.0,-100.00,NE,45,5.0,-999.0,82,-99.99,,,-99.99,,2013-06-18 11:43:00,
2013-06-18 06:52:00,63.0,57.0,-100.00,ENE,68,4.0,-999.0,83,-99.99,,,-99.99,,2013-06-18 11:52:00,
2013-06-18 07:01:00,64.0,58.0,-100.00,ENE,68,5.0,-999.0,80,-99.99,,,-99.99,,2013-06-18 12:01:00,
2013-06-18 07:11:00,64.0,58.0,-100.00,ENE,68,5.0,-999.0,80,-99.99,,,-99.99,,2013-06-18 12:11:00,
2013-06-18 07:22:00,66.0,59.0,-100.00,ENE,68,5.0,-999.0,77,-99.99,,,-99.99,,2013-06-18 12:22:00,
2013-06-18 07:32:00,69.0,59.0,-100.00,NE,45,2.0,-999.0,71,-99.99,,,-99.99,,2013-06-18 12:32:00,
2013-06-18 07:43:00,69.0,59.0,-100.00,NE,45,2.0,-999.0,71,-99.99,,,-99.99,,2013-06-18 12:43:00,
2013-06-18 08:12:00,75.0,57.0,-100.00,ENE,68,4.0,-999.0,53,-99.99,,,-99.99,,2013-06-18 13:12:00,
2013-06-18 08:43:00,75.0,54.0,-100.00,East,90,6.0,-999.0,48,-99.99,,,-99.99,,2013-06-18 13:43:00,
2013-06-18 09:11:00,78.0,54.0,-100.00,East,90,6.0,-999.0,44,-99.99,,,-99.99,,2013-06-18 14:11:00,
2013-06-18 09:22:00,78.0,54.0,-100.00,East,90,8.0,-999.0,44,-99.99,,,-99.99,,2013-06-18 14:22:00,
2013-06-18 09:33:00,78.0,53.0,-100.00,East,90,9.0,-999.0,42,-99.99,,,-99.99,,2013-06-18 14:33:00,
2013-06-18 09:43:00,78.0,53.0,-100.00,East,90,9.0,-999.0,42,-99.99,,,-99.99,,2013-06-18 14:43:00,
2013-06-18 09:53:00,78.0,54.0,-100.00,East,90,9.0,-999.0,43,-99.99,,,-99.99,,2013-06-18 14:53:00,
2013-06-18 10:02:00,77.0,53.0,-100.00,ESE,113,11.0,-999.0,43,-99.99,,,-99.99,,2013-06-18 15:02:00,
2013-06-18 10:11:00,77.0,53.0,-100.00,ESE,113,11.0,-999.0,43,-99.99,,,-99.99,,2013-06-18 15:11:00,
2013-06-18 10:22:00,78.0,54.0,-100.00,ESE,113,10.0,-999.0,44,-99.99,,,-99.99,,2013-06-18 15:22:00,
2013-06-18 10:33:00,78.0,53.0,-100.00,ESE,113,11.0,-999.0,42,-99.99,,,-99.99,,2013-06-18 15:33:00,
2013-06-18 10:43:00,78.0,53.0,-100.00,ESE,113,11.0,-999.0,42,-99.99,,,-99.99,,2013-06-18 15:43:00,
2013-06-18 10:53:00,80.0,54.0,-100.00,ESE,113,11.0,-999.0,40,-99.99,,,-99.99,,2013-06-18 15:53:00,
2013-06-18 11:01:00,80.0,52.0,-100.00,ESE,113,11.0,-999.0,38,-99.99,,,-99.99,,2013-06-18 16:01:00,
2013-06-18 11:11:00,78.0,53.0,-100.00,ENE,68,8.0,-999.0,42,-99.99,,,-99.99,,2013-06-18 16:11:00,
2013-06-18 11:22:00,78.0,53.0,-100.00,ENE,68,8.0,-999.0,42,-99.99,,,-99.99,,2013-06-18 16:22:00,
2013-06-18 11:33:00,77.0,52.0,-100.00,ENE,68,10.0,-999.0,42,-99.99,,,-99.99,,2013-06-18 16:33:00,
2013-06-18 11:43:00,77.0,52.0,-100.00,ENE,68,10.0,-999.0,42,-99.99,,,-99.99,,2013-06-18 16:43:00,
2013-06-18 11:53:00,76.0,54.0,-100.00,ENE,68,16.0,-999.0,46,-99.99,,,-99.99,,2013-06-18 16:53:00,
2013-06-18 12:02:00,75.0,56.0,-100.00,ENE,68,18.0,-999.0,51,-99.99,,,-99.99,,2013-06-18 17:02:00,
2013-06-18 12:11:00,72.0,58.0,-100.00,East,90,16.0,-999.0,60,-99.99,,,-99.99,,2013-06-18 17:11:00,
2013-06-18 12:22:00,72.0,58.0,-100.00,East,90,16.0,-999.0,60,-99.99,,,-99.99,,2013-06-18 17:22:00,
2013-06-18 12:33:00,72.0,58.0,-100.00,East,90,14.0,-999.0,61,-99.99,,,-99.99,,2013-06-18 17:33:00,
2013-06-18 12:43:00,72.0,58.0,-100.00,East,90,14.0,-999.0,61,-99.99,,,-99.99,,2013-06-18 17:43:00,
2013-06-18 12:53:00,72.0,59.0,-100.00,East,90,9.0,-999.0,62,-99.99,,,-99.99,,2013-06-18 17:53:00,
2013-06-18 13:02:00,74.0,58.0,-100.00,East,90,17.0,-999.0,57,-99.99,,,-99.99,,2013-06-18 18:02:00,
2013-06-18 13:11:00,74.0,58.0,-100.00,East,90,17.0,-999.0,57,-99.99,,,-99.99,,2013-06-18 18:11:00,
2013-06-18 13:22:00,76.0,58.0,-100.00,East,90,16.0,-999.0,54,-99.99,,,-99.99,,2013-06-18 18:22:00,
2013-06-18 13:33:00,78.0,59.0,-100.00,ESE,113,16.0,-999.0,51,-99.99,,,-99.99,,2013-06-18 18:33:00,
2013-06-18 13:42:00,78.0,59.0,-100.00,ESE,113,16.0,-999.0,51,-99.99,,,-99.99,,2013-06-18 18:42:00,
2013-06-18 13:53:00,80.0,60.0,-100.00,East,90,15.0,-999.0,50,-99.99,,,-99.99,,2013-06-18 18:53:00,
2013-06-18 14:01:00,80.0,60.0,-100.00,East,90,14.0,-999.0,52,-99.99,,,-99.99,,2013-06-18 19:01:00,
2013-06-18 14:11:00,80.0,61.0,-100.00,East,90,13.0,-999.0,53,-99.99,,,-99.99,,2013-06-18 19:11:00,
2013-06-18 14:22:00,80.0,61.0,-100.00,East,90,13.0,-999.0,53,-99.99,,,-99.99,,2013-06-18 19:22:00,
2013-06-18 14:33:00,80.0,61.0,-100.00,East,90,15.0,-999.0,51,-99.99,,,-99.99,,2013-06-18 19:33:00,
2013-06-18 14:43:00,80.0,61.0,-100.00,East,90,15.0,-999.0,51,-99.99,,,-99.99,,2013-06-18 19:43:00,
2013-06-18 14:52:00,81.0,61.0,-100.00,East,90,13.0,-999.0,50,-99.99,,,-99.99,,2013-06-18 19:52:00,
2013-06-18 15:01:00,82.0,59.0,-100.00,East,90,14.0,-999.0,45,-99.99,,,-99.99,,2013-06-18 20:01:00,
2013-06-18 15:11:00,82.0,59.0,-100.00,East,90,12.0,-999.0,45,-99.99,,,-99.99,,2013-06-18 20:11:00,
2013-06-18 15:23:00,82.0,59.0,-100.00,East,90,12.0,-999.0,45,-99.99,,,-99.99,,2013-06-18 20:23:00,
2013-06-18 15:33:00,83.0,57.0,-100.00,East,90,11.0,-999.0,42,-99.99,,,-99.99,,2013-06-18 20:33:00,
2013-06-18 15:43:00,83.0,57.0,-100.00,East,90,11.0,-999.0,42,-99.99,,,-99.99,,2013-06-18 20:43:00,
2013-06-18 15:52:00,83.0,58.0,-100.00,East,90,13.0,-999.0,43,-99.99,,,-99.99,,2013-06-18 20:52:00,
2013-06-18 16:01:00,82.0,57.0,-100.00,ESE,113,11.0,-999.0,43,-99.99,,,-99.99,,2013-06-18 21:01:00,
2013-06-18 16:11:00,82.0,57.0,-100.00,ESE,113,11.0,-999.0,43,-99.99,,,-99.99,,2013-06-18 21:11:00,
2013-06-18 16:22:00,82.0,59.0,-100.00,East,90,10.0,-999.0,45,-99.99,,,-99.99,,2013-06-18 21:22:00,
2013-06-18 16:33:00,84.0,60.0,-100.00,East,90,11.0,-999.0,44,-99.99,,,-99.99,,2013-06-18 21:33:00,
2013-06-18 16:43:00,84.0,60.0,-100.00,East,90,11.0,-999.0,44,-99.99,,,-99.99,,2013-06-18 21:43:00,
2013-06-18 16:52:00,85.0,59.0,-100.00,SE,135,12.0,-999.0,41,-99.99,,,-99.99,,2013-06-18 21:52:00,
2013-06-18 17:01:00,85.0,59.0,-100.00,ESE,113,10.0,-999.0,41,-99.99,,,-99.99,,2013-06-18 22:01:00,
2013-06-18 17:11:00,85.0,59.0,-100.00,ESE,113,10.0,-999.0,41,-99.99,,,-99.99,,2013-06-18 22:11:00,
2013-06-18 17:22:00,85.0,59.0,-100.00,East,90,11.0,-999.0,42,-99.99,,,-99.99,,2013-06-18 22:22:00,
2013-06-18 17:34:00,86.0,59.0,-100.00,SE,135,13.0,-999.0,41,-99.99,,,-99.99,,2013-06-18 22:34:00,
2013-06-18 17:42:00,86.0,59.0,-100.00,SE,135,13.0,-999.0,41,-99.99,,,-99.99,,2013-06-18 22:42:00,
2013-06-18 17:53:00,83.0,57.0,-100.00,SE,135,13.0,-999.0,42,-99.99,,,-99.99,,2013-06-18 22:53:00,
2013-06-18 18:01:00,83.0,57.0,-100.00,SE,135,9.0,-999.0,42,-99.99,,,-99.99,,2013-06-18 23:01:00,
2013-06-18 18:11:00,83.0,58.0,-100.00,ESE,113,9.0,-999.0,44,-99.99,,,-99.99,,2013-06-18 23:11:00,
2013-06-18 18:23:00,83.0,58.0,-100.00,ESE,113,9.0,-999.0,44,-99.99,,,-99.99,,2013-06-18 23:23:00,
2013-06-18 18:35:00,82.0,59.0,-100.00,ESE,113,11.0,-999.0,45,-99.99,,,-99.99,,2013-06-18 23:35:00,
2013-06-18 18:45:00,82.0,59.0,-100.00,ESE,113,11.0,-999.0,45,-99.99,,,-99.99,,2013-06-18 23:45:00,
2013-06-18 18:53:00,81.0,59.0,-100.00,East,90,9.0,-999.0,47,-99.99,,,-99.99,,2013-06-18 23:53:00,
2013-06-18 19:01:00,81.0,59.0,-100.00,ESE,113,11.0,-999.0,47,-99.99,,,-99.99,,2013-06-19 00:01:00,
2013-06-18 19:11:00,81.0,59.0,-100.00,ESE,113,11.0,-999.0,47,-99.99,,,-99.99,,2013-06-19 00:11:00,
2013-06-18 19:22:00,82.0,59.0,-100.00,SE,135,9.0,-999.0,46,-99.99,,,-99.99,,2013-06-19 00:22:00,
2013-06-18 19:33:00,82.0,59.0,-100.00,SE,135,10.0,-999.0,45,-99.99,,,-99.99,,2013-06-19 00:33:00,
2013-06-18 19:43:00,82.0,59.0,-100.00,SE,135,10.0,-999.0,45,-99.99,,,-99.99,,2013-06-19 00:43:00,
2013-06-18 19:53:00,83.0,59.0,-100.00,SE,135,10.0,-999.0,45,-99.99,,,-99.99,,2013-06-19 00:53:00,
2013-06-18 20:01:00,83.0,59.0,-100.00,SSE,158,10.0,-999.0,45,-99.99,,,-99.99,,2013-06-19 01:01:00,
2013-06-18 20:11:00,83.0,59.0,-100.00,SSE,158,10.0,-999.0,45,-99.99,,,-99.99,,2013-06-19 01:11:00,
2013-06-18 20:22:00,82.0,59.0,-100.00,SE,135,11.0,-999.0,45,-99.99,,,-99.99,,2013-06-19 01:22:00,
2013-06-18 20:32:00,81.0,58.0,-100.00,SE,135,10.0,-999.0,46,-99.99,,,-99.99,,2013-06-19 01:32:00,
2013-06-18 20:42:00,81.0,58.0,-100.00,SE,135,10.0,-999.0,46,-99.99,,,-99.99,,2013-06-19 01:42:00,
2013-06-18 20:53:00,80.0,58.0,-100.00,SE,135,8.0,-999.0,48,-99.99,,,-99.99,,2013-06-19 01:53:00,
2013-06-18 21:01:00,78.0,58.0,-100.00,SSE,158,6.0,-999.0,50,-99.99,,,-99.99,,2013-06-19 02:01:00,
2013-06-18 21:11:00,78.0,58.0,-100.00,SSE,158,6.0,-999.0,50,-99.99,,,-99.99,,2013-06-19 02:11:00,
2013-06-18 21:21:00,77.0,58.0,-100.00,South,180,9.0,-999.0,53,-99.99,,,-99.99,,2013-06-19 02:21:00,
2013-06-18 21:32:00,75.0,58.0,-100.00,South,180,8.0,-999.0,56,-99.99,,,-99.99,,2013-06-19 02:32:00,
2013-06-18 21:42:00,75.0,58.0,-100.00,South,180,8.0,-999.0,56,-99.99,,,-99.99,,2013-06-19 02:42:00,
2013-06-18 21:52:00,74.0,59.0,-100.00,SSE,158,8.0,-999.0,59,-99.99,,,-99.99,,2013-06-19 02:52:00,
2013-06-18 22:01:00,72.0,59.0,-100.00,SSE,158,6.0,-999.0,62,-99.99,,,-99.99,,2013-06-19 03:01:00,
2013-06-18 22:11:00,71.0,59.0,-100.00,South,180,8.0,-999.0,65,-99.99,,,-99.99,,2013-06-19 03:11:00,
2013-06-18 22:21:00,71.0,59.0,-100.00,South,180,8.0,-999.0,65,-99.99,,,-99.99,,2013-06-19 03:21:00,
2013-06-18 22:33:00,71.0,60.0,-100.00,South,180,6.0,-999.0,68,-99.99,,,-99.99,,2013-06-19 03:33:00,
2013-06-18 22:42:00,71.0,60.0,-100.00,South,180,6.0,-999.0,68,-99.99,,,-99.99,,2013-06-19 03:42:00,
2013-06-18 22:52:00,69.0,60.0,-100.00,SSE,158,6.0,-999.0,72,-99.99,,,-99.99,,2013-06-19 03:52:00,
2013-06-18 23:01:00,67.0,60.0,-100.00,SE,135,7.0,-999.0,77,-99.99,,,-99.99,,2013-06-19 04:01:00,
2013-06-18 23:11:00,67.0,60.0,-100.00,SE,135,7.0,-999.0,77,-99.99,,,-99.99,,2013-06-19 04:11:00,
2013-06-18 23:22:00,67.0,60.0,-100.00,SE,135,6.0,-999.0,78,-99.99,,,-99.99,,2013-06-19 04:22:00,
2013-06-18 23:32:00,66.0,61.0,-100.00,ESE,113,6.0,-999.0,84,-99.99,,,-99.99,,2013-06-19 04:32:00,
2013-06-18 23:42:00,66.0,61.0,-100.00,ESE,113,6.0,-999.0,84,-99.99,,,-99.99,,2013-06-19 04:42:00,
2013-06-18 23:53:00,66.0,61.0,-100.00,ESE,113,6.0,-999.0,84,-99.99,,,-99.99,,2013-06-19 04:53:00,